Regional Weather Roundup
Issued by NWS Northern Indiana

Home | Current Version | Previous Version | Graphics & Text | Print | Product List | Glossary On
Versions: 1 2 3 4 5 6 7 8 9 10 11 12 13 14 15 16 17 18 19 20 21 22 23 24 25 26 27 28 29 30 31 32 33 34 35 36 37 38 39 40 41 42 43 44 45 46 47 48 49 50
000
ASUS43 KIWX 251710
RWRIWX

KIWX WEATHER ROUNDUP
NATIONAL WEATHER SERVICE NORTHERN INDIANA
100 PM EDT TUE JUL 25 2017

NOTE: "FAIR" INDICATES FEW OR NO CLOUDS BELOW 12,000 FEET WITH NO
SIGNIFICANT WEATHER AND/OR OBSTRUCTIONS TO VISIBILITY.

* THESE STATIONS ARE NOT UNDER NWS QUALITY CONTROL. THEY ALSO MAY NOT
  REPORT WEATHER SUCH AS PRECIPITATION OR FOG.

INZ001>027-251800-
NORTHERN INDIANA

CITY           SKY/WX    TMP DP  RH WIND       PRES   REMARKS
GARY*          MOSUNNY   77  54  44 SE12      30.21S
VALPARAISO     SUNNY     77  58  51 SE15      30.22F
MICHIGAN CITY* SUNNY     75  55  50 S7G17     30.22S
LAPORTE*       SUNNY     74  56  52 SE7       30.23S
KNOX*          SUNNY     73  55  53 E12       30.22S
SOUTH BEND     SUNNY     77  53  43 SE12      30.23S
ELKHART*       SUNNY     75  50  41 SE7       30.22F
GOSHEN         SUNNY     76  49  38 SE13      30.23F
MONTICELLO*    SUNNY     74  54  49 NE9       30.20F
LOGANSPORT*    SUNNY     73  52  46 E12       30.22F
ROCHESTER*     SUNNY     77  52  41 E10G16    30.23F
WARSAW*        SUNNY     72  52  49 E10       30.24S
AUBURN*        SUNNY     73  52  46 NE8       30.24F
FORT WAYNE     MOSUNNY   74  53  48 E14       30.24F
HUNTINGTON*    SUNNY     73  53  49 E8        30.23F
PERU/GRISSOM   SUNNY     74  56  53 E7        30.21F
MARION*        SUNNY     73  54  49 E9        30.22F

$$
INZ028>050-251800-
CENTRAL INDIANA

CITY           SKY/WX    TMP DP  RH WIND       PRES   REMARKS
LAFAYETTE      SUNNY     76  58  53 E15       30.19F
KOKOMO*        SUNNY     74  59  59 E12G17    30.22F
MUNCIE*        SUNNY     76  55  48 NE10      30.22F
INDIANAPOLIS   MOSUNNY   77  56  48 E12       30.19S

$$
MIZ043>046-050>051-056>058-064>065-071>073-077>080-251800-
SOUTHWEST LOWER MICHIGAN

CITY           SKY/WX    TMP DP  RH WIND       PRES   REMARKS
BATTLE CREEK   SUNNY     75  50  41 VRB5      30.24F
BENTON HARBOR  SUNNY     77  53  43 SE8       30.22S
COLDWATER*     SUNNY     73  53  47 SE7       30.24F
HILLSDALE*     MOSUNNY   73  50  43 NE5       30.24F
GRAND RAPIDS   PTSUNNY   76  55  48 S9        30.22F
KALAMAZOO      SUNNY     77  47  34 VRB6      30.23F
STURGIS*       SUNNY     73  56  54 E8        30.23F
THREE RIVERS*  FAIR      74  51  44 SE3       30.24S

$$
OHZ001>008-015>018-024>025-251800-
NORTHWEST OHIO

CITY           SKY/WX    TMP DP  RH WIND       PRES   REMARKS
WAUSEON*       FAIR      77  54  44 NE8       30.24F
DEFIANCE       SUNNY    N/A N/A N/A E9        30.24F
FINDLAY        MOSUNNY   74  54  49 NE7       30.23S
TOLEDO EXPRESS SUNNY     76  55  48 NE10      30.23S
TOLEDO METCALF MOSUNNY   73  57  57 NE8       30.25S
LIMA           SUNNY     71  57  61 NE7       30.24S

$$
AND FOR LAKE MICHIGAN COASTAL AND OPEN LAKE BUOY OBSERVATIONS

STATION/POSITION TEMP    WIND        PRES    VSBY  WAVE
                 AIR SEA DIR/SP/G                  HT/PER
                 (F)     (DEG/KT/KT) (MB)    (MI)  (FT/S)
CALUMET HARBOR    74     130/  7/ 11 1022.5R
MICHIGAN CITY     72     140/ 12/ 14   N/A
BURNS HARBOR      74     140/ 12/ 16 1023.4S
SAINT JOSEPH      77     240/  2/  7 1023.4
SOUTH LAKE BUOY   70 70  180/ 14/ 16 1023.2R         2/ 4
4 MI NW BRIDGMAN  73 73  170/  8/ 10 1023.0          1/ 5
MICHIGAN CITY     73 74  150/  8/ 12   N/A           2/ 5

$$
&&




USA.gov is the U.S. government's official web portal to all federal, state and local government web resources and services.